Flag for U.S.A. Weather past 2 weeks in Salinas, California, U.S.A.

Now
68 °F

Passing clouds.


Feels Like: 68 °F
Forecast: 58 / 72 °F
Wind: 14 mph from West

Location: Salinas Municipal Airport

Current Time: Sep 2, 2014 at 1:48:30 PM

Latest Report: Sep 2, 2014 at 12:53 PM


Visibility: 9 mi

Pressure: 29.90 "Hg

Humidity: 68%

Dew point: 57 °F

Location of SalinasLocation

Historic Weather in Salinas — Graph

°F

Salinas temperature yesterday

Maximum temperature yesterday: 77 °F (at 12:53 PM)
Minimum temperature yesterday: 60 °F (at 6:53 AM)
Average temperature yesterday: 66 °F

Past Weeks' High & Low Weather Summary

 TemperatureHumidityPressure
High80 °F (Aug 27, 12:53 PM)100% (Aug 30, 6:53 AM)30.10 "Hg (Aug 30, 6:53 AM)
Low54 °F (Aug 27, 6:53 AM)41% (Aug 27, 11:53 AM)29.82 "Hg (Sep 1, 6:53 PM)
Average65 °F75%29.95 "Hg
* Reported Aug 18 11:53 AM — Sep 2 11:53 AM, Salinas, Weather by CustomWeather, © 2014

Note: Actual official high and low records may vary slightly from our data, if they occured in-between our weather recording intervals... More about our weather records

Advertising

Salinas weather history for previous 24 hours

 ConditionsComfort  
Time TempWeatherWind HumidityBarometerVisibility
11:53 AM
Sep 2
69 °FPassing clouds.9 mph66%29.91 "Hg9 mi
10:53 AM66 °FOvercast.6 mph70%29.91 "Hg8 mi
10:02 AM63 °FOvercast.6 mph77%29.89 "Hg10 mi
8:53 AM61 °FLow clouds.3 mph87%29.90 "Hg9 mi
7:53 AM61 °FLow clouds.3 mph83%29.90 "Hg9 mi
6:53 AM61 °FLow clouds.5 mph87%29.88 "Hg9 mi
5:53 AM61 °FLow clouds.5 mph87%29.86 "Hg9 mi
4:53 AM61 °FLow clouds.5 mph87%29.85 "Hg9 mi
3:53 AM62 °FLow clouds.3 mph86%29.85 "Hg8 mi
2:53 AM61 °FLow clouds.No wind90%29.85 "Hg8 mi
1:53 AM62 °FLow clouds.7 mph86%29.85 "Hg8 mi
12:53 AM62 °FLow clouds.7 mph86%29.85 "Hg8 mi
11:53 PM
Sep 1
63 °FLow clouds.8 mph84%29.85 "Hg8 mi
10:53 PM63 °FLow clouds.9 mph87%29.85 "Hg8 mi
9:53 PM64 °FClear.8 mph81%29.84 "Hg8 mi
8:53 PM64 °FClear.9 mph81%29.84 "Hg8 mi
7:53 PM65 °FSunny.9 mph78%29.82 "Hg8 mi
6:53 PM67 °FSunny.12 mph76%29.82 "Hg8 mi
5:53 PM70 °FSunny.12 mph66%29.82 "Hg9 mi
4:53 PM72 °FSunny.14 mph59%29.82 "Hg10 mi
3:53 PM71 °FSunny.14 mph63%29.82 "Hg9 mi
2:53 PM72 °FSunny.15 mph61%29.83 "Hg10 mi
1:53 PM75 °FSunny.13 mph58%29.83 "Hg9 mi
Weather by CustomWeather, © 2014

See weather overviewHow to use our weather pages